COSMOS 1275 DEB, 12672

Orbit data source: Space-Track

COSMOS 1275 DEB, 12672 is space debris in LEO originally from a launch on Thu, 04 Jun 1981 UTC launched from the Plesetsk Missile And Space Complex (PKMTR). Debris objects in space refer to the collection of defunct objects orbiting the Earth. Examples of debris include non-operational satellites, rocket bodies, and fragments generated from explosions, collisions, or faulty payload assembly.

Loading next visibility...
Identifier
12672, 1981-053AC
Orbit
LEO
Country
Flag of CISCIS
Related business
Manufacturer
Unknown
Mission
Spacecraft
Bus & Motor
Unknown
Mass
Unknown
Launch date (UTC)
1981-06-04 (45 years ago)
Launch vehicle
Unknown
Launch site
Plesetsk Missile And Space Complex (PKMTR)
Object type
Payload
Rocket body
Debris
Shape & HBR
Unknown shape, 0.3 m
Radar Cross Section
Medium (>0.1 m² and <1 m²)

Expand to show TLE details & history
Last TLE update: 2 days ago

TLE from 2 days ago
0 COSMOS 1275 DEB
1 12672U 81053AC  26171.48196769  .00000430  00000-0  37191-3 0  9993
2 12672  82.9420 167.7413 0023983 248.8869 275.1141 13.84094937258862
Epoch: 2026-06-20T11:34Z
TLE epoch observation values (Epoch: 2026-06-20T11:34:02.008Z)
Latitude
16.12758°
Longitude
-96.50402°
Altitude
950.128 km
Speed
7.379 km/s
True Right ascension
23h 02m 48s
True Declination
16° 02' 18"
Sunlit
Object was in daylight at epoch
Visualization orbit readout
Latitude
Unknown
Longitude
Unknown
Altitude
Unknown
Speed
Unknown
Apparent Right ascension
Unknown
Apparent Declination
Unknown
Sunlit
N/A
Visualization observer readout
Local Sidereal Time
00:51:05
Azimuth
Unknown
Elevation
Unknown
Doppler factor
Unknown
Orbital elements
Apogee altitude
964.101 km
Perigee altitude
928.968 km
Semi-major axis
7,324.672 km
Eccentricity
0.0024
Inclination
82.942°
RAAN
167.7413°
Arg. of periapsis
248.8869°
True anomaly
274.8403°
Mean anomaly
275.1141°
Eccentric anomaly
274.97721°
Mean motion
3.46227 °/min
Orbital period
103.98 mins
BSTAR
0.00037191
Loading maneuver chart data...
Computing Atmospheric mass density...

Documentation

Showing up to 5 results
|